Regional Weather Roundup
Issued by NWS

Home | Current Version | Previous Version | Graphics & Text | Print | Product List | Glossary On
Versions: 1 2 3 4 5 6 7 8 9 10 11 12 13 14 15 16 17 18 19 20 21 22 23 24 25 26 27 28 29 30 31 32 33 34 35 36 37 38 39 40 41 42 43 44 45 46 47 48 49 50
000
ASUS43 KLOT 291003
RWRIL

ILLINOIS REGIONAL WEATHER ROUNDUP
NATIONAL WEATHER SERVICE CHICAGO/ROMEOVILLE IL
500 AM CDT WED MAR 29 2017

NOTE: "FAIR" INDICATES FEW OR NO CLOUDS BELOW 12,000 FEET WITH NO
SIGNIFICANT WEATHER AND/OR OBSTRUCTIONS TO VISIBILITY.

* THESE STATIONS ARE NOT UNDER NWS QUALITY CONTROL. THEY ALSO MAY NOT
  REPORT WEATHER SUCH AS PRECIPITATION OR FOG.

ILZ001-002-007-009-015-016-024-291100-
NORTHWEST ILLINOIS

CITY           SKY/WX    TMP DP  RH WIND       PRES   REMARKS
MOLINE         CLOUDY    43  39  86 E9        30.17R
STERLING*      MOCLDY    37  37 100 E15       30.19R FOG     WCI  28
SAVANNA*       PTCLDY    39  37  92 NE5       30.20R
$$

ILZ003-004-008-010-011-017-018-291100-
NORTH CENTRAL ILLINOIS

CITY           SKY/WX    TMP DP  RH WIND       PRES   REMARKS
ROCKFORD       FOG       37  35  92 E7        30.23R VSB 3/4 WCI  32
FREEPORT*      MOCLDY    33  33  98 E6        30.21S FOG     WCI  28
ROCHELLE*      CLOUDY    37  37 100 E10       30.21S FOG     WCI  29
DE KALB*       FOG       36  36  99 E8        30.21R VSB 1   WCI  30
PERU*          CLOUDY    39  37  91 E12       30.18S FOG     WCI  32
$$

ILZ005-006-012>014-019>023-291100-
NORTHEAST ILLINOIS

CITY           SKY/WX    TMP DP  RH WIND       PRES   REMARKS
CHICAGO-OHARE  FOG       35  33  92 NE6       30.22S VSB 1   WCI  30
CHICAGO-MIDWAY CLOUDY    36  35  96 NE9       30.22F FOG     WCI  29
AURORA         CLOUDY    38  36  92 E10       30.21S FOG     WCI  31
LANSING*       FOG       35  35 100 NE7       30.21F VSB 1/2 WCI  29
JOLIET*        CLOUDY    38  38  97 NE8       30.21R FOG     WCI  32
WAUKEGAN       FOG       31  31 100 NE6       30.23S VSB 1/4 WCI  25
DUPAGE AIRPORT CLOUDY    36  36 100 NE8       30.21R FOG     WCI  30
WHEELING       FOG       32  32 100 E6        30.24S VSB 1   WCI  26
MORRIS*        CLOUDY    38  37  94 E6        30.19R FOG     WCI  33
NORTHERLY ISL    N/A     34  33  96 N9          N/A  WCI  27
$$

LMZ740>746-291100-
SOUTHERN LAKE MICHIGAN

STATION/POSITION SKY/WX   TEMP    WIND        PRES    VSBY  WAVE
                          AIR SEA DIR/SP/G                  HT/PER
                          (F)     (DEG/KT/KT) (MB)    (MI)  (FT/S)
HARRISON CRIB              35      30/  7/  8   N/A
BURNHAM HARBOR             34      30/  7/ 10   N/A
CALUMET HARBOR             34      30/  6/  8 1023.0S
BURNS HARBOR               35      70/  7/  9 1023.7S
MICHIGAN CITY              37      40/  7/  7   N/A
$$

ILZ025>027-034>036-040-047-049-050-058-095>099-291100-
WEST-CENTRAL ILLINOIS

CITY           SKY/WX    TMP DP  RH WIND       PRES   REMARKS
QUINCY         CLOUDY    46  42  86 NE18      30.04F
GALESBURG*     CLOUDY    41  41  99 E6        30.14S FOG
MACOMB*        CLOUDY    41  40  96 E12       30.15S
JACKSONVILLE*  CLOUDY    42  40  92 E13       30.10S
PITTSFIELD*    CLOUDY    46  43  89 NE9       30.08F
$$

ILZ028>032-037-038-041>044-048-051>054-059>061-291100-
CENTRAL ILLINOIS

CITY           SKY/WX    TMP DP  RH WIND       PRES   REMARKS
PONTIAC        CLOUDY    43  43  99 NE12      30.17F
BLOOMINGTON    CLOUDY    43  42  97 E10       30.15S FOG
DECATUR        CLOUDY    45  41  86 NE12      30.12F
PEORIA         CLOUDY    44  42  93 E9        30.15R FOG
SPRINGFIELD    CLOUDY    45  41  86 E8        30.12S
TAYLORVILLE    NOT AVBL
$$

ILZ033-039-045-046-055>057-062-063-291100-
EAST-CENTRAL ILLINOIS

CITY           SKY/WX    TMP DP  RH WIND       PRES   REMARKS
CHAMPAIGN      CLOUDY    46  42  86 NE12      30.12F
RANTOUL*       CLOUDY    46  45  94 E12       30.14F
MATTOON        CLEAR     40  40 100 NE6       30.10F
PARIS*         CLOUDY    47  45  93 NE7       30.13F
$$

ILZ079-100>102-291100-
SOUTHWEST ILLINOIS

CITY           SKY/WX    TMP DP  RH WIND       PRES   REMARKS
BELLEVILLE     CLOUDY    47  46  97 NE7       30.04F
CAHOKIA*       CLOUDY    49  42  77 E10       30.04F
SPARTA*        PTCLDY    47  45  92 E8        30.05F
$$

ILZ064>066-069>071-074>076-080>082-084>086-088>090-092>094-291100-
SOUTH-CENTRAL ILLINOIS

CITY           SKY/WX    TMP DP  RH WIND       PRES   REMARKS
CARBONDALE     CLOUDY    49  48  97 NE8       30.03F
CAIRO*         CLEAR     52  50  93 NE6       30.01S
EFFINGHAM*     CLEAR     43  43  99 NE3       30.10F
MARION         PTCLDY    46  46 100 NE5       30.04F
MT. VERNON     CLEAR     48  45  89 NE8       30.06
CENTRALIA*     CLEAR     47  45  92 E7        30.06R
SALEM*         PTCLDY    48  44  85 E7        30.07F
$$

ILZ067-068-072-073-078-083-087-091-291100-
SOUTHEAST ILLINOIS

CITY           SKY/WX    TMP DP  RH WIND       PRES   REMARKS
LAWRENCEVILLE  CLEAR     46  44  93 NE7       30.10F
FLORA*         CLOUDY    48  45  88 NE8       30.08F
FAIRFIELD*     MOCLDY    48  47  93 NE7       30.06S
HARRISBURG*    CLOUDY    51  49  94 NE5       30.06S
ROBINSON*      CLEAR     44  42  94 E5        30.12S
CARMI*         MOCLDY    51  48  91 E7        30.06S
$$

ABBREVIATIONS USED IN REMARKS
   TC - TEMPERATURE IN CELSIUS
  WCI - WIND CHILL INDEX
   HX - HEAT INDEX
  VSB - VISIBILITY
$$




USA.gov is the U.S. government's official web portal to all federal, state and local government web resources and services.